Location: Winnipeg
(49.8830°N, 97.1670°W)
Time: 19:47:08
(UTC-06:00)

Envisat - Pass Details

Date: 05 December 2022
Orbit: 763 x 765 km, 98.2° (Epoch: 28 January)

Event Time Altitude Azimuth Distance (km) Brightness Sun altitude
Rises 05:24:22 0° 10° (N) 3,246 6.3 -25.6°
Reaches altitude 10° 05:26:44 10° 6° (N) 2,315 5.5 -25.3°
Enters shadow 05:29:14 28° 353° (N) 1,411 4.2 -24.9°
